START_TIME,STEP,MOV.,P11,t_acc.,P23,t_acc.,P27,t_acc.,A4,t_acc.
1979-03-06 15:00:20.710 ,0,1,440.,4.8,0.,4.8,0.,4.8,1.,4.8
1979-03-06 15:00:25.510 ,0,1,368.,4.8,0.,4.8,0.,4.8,1.,4.8
1979-03-06 15:00:30.310 ,0,1,408.,4.8,0.,4.8,0.,4.8,1.,4.8
1979-03-06 15:00:35.110 ,0,1,392.,4.8,0.,4.8,0.,4.8,1.,4.8
1979-03-06 15:00:39.910 ,0,1,640.,4.8,0.,4.8,0.,4.8,0.,4.8
1979-03-06 15:00:44.710 ,3,1,608.,4.8,0.,4.8,0.,4.8,0.,4.8
1979-03-06 15:00:49.510 ,3,1,656.,4.8,0.,4.8,0.,4.8,0.,4.8
1979-03-06 15:00:54.310 ,3,1,592.,4.8,0.,4.8,0.,4.8,0.,4.8
1979-03-06 15:00:59.110 ,3,1,592.,4.8,0.,4.8,0.,4.8,0.,4.8
1979-03-06 15:01:03.910 ,3,1,504.,4.8,0.,4.8,0.,4.8,0.,4.8
1979-03-06 15:01:08.710 ,7,1,512.,4.8,0.,4.8,0.,4.8,0.,4.8
1979-03-06 15:01:13.510 ,7,1,640.,4.8,0.,4.8,0.,4.8,1.,4.8
1979-03-06 15:01:18.310 ,7,1,624.,4.8,0.,4.8,0.,4.8,0.,4.8
1979-03-06 15:01:23.110 ,7,1,512.,4.8,0.,4.8,0.,4.8,0.,4.8
1979-03-06 15:01:27.910 ,7,1,264.,4.8,0.,4.8,0.,4.8,0.,4.8
1979-03-06 15:01:32.710 ,4,1,188.,4.8,0.,4.8,0.,4.8,0.,4.8
1979-03-06 15:01:37.510 ,4,1,272.,4.8,0.,4.8,0.,4.8,0.,4.8
1979-03-06 15:01:42.310 ,4,1,576.,4.8,0.,4.8,0.,4.8,1.,4.8
1979-03-06 15:01:47.110 ,4,1,608.,4.8,0.,4.8,0.,4.8,0.,4.8
1979-03-06 15:01:51.910 ,4,1,576.,4.8,0.,4.8,0.,4.8,0.,4.8
1979-03-06 15:01:56.710 ,0,1,528.,4.8,0.,4.8,0.,4.8,2.,4.8
1979-03-06 15:02:01.510 ,0,1,464.,4.8,0.,4.8,0.,4.8,1.,4.8
1979-03-06 15:02:06.310 ,0,1,560.,4.8,0.,4.8,0.,4.8,0.,4.8
1979-03-06 15:02:11.110 ,0,1,640.,4.8,0.,4.8,0.,4.8,1.,4.8
1979-03-06 15:02:15.910 ,0,1,544.,4.8,0.,4.8,0.,4.8,1.,4.8
1979-03-06 15:02:20.710 ,3,1,512.,4.8,0.,4.8,0.,4.8,0.,4.8
1979-03-06 15:02:25.510 ,3,1,488.,4.8,0.,4.8,0.,4.8,0.,4.8
1979-03-06 15:02:30.310 ,3,1,512.,4.8,0.,4.8,0.,4.8,0.,4.8
1979-03-06 15:02:35.110 ,3,1,528.,4.8,0.,4.8,0.,4.8,0.,4.8
1979-03-06 15:02:39.910 ,3,1,368.,4.8,0.,4.8,0.,4.8,0.,4.8
1979-03-06 15:02:44.710 ,7,1,560.,4.8,0.,4.8,0.,4.8,1.,4.8
1979-03-06 15:02:49.510 ,7,1,672.,4.8,0.,4.8,0.,4.8,2.,4.8
1979-03-06 15:02:54.310 ,7,1,736.,4.8,0.,4.8,0.,4.8,0.,4.8
1979-03-06 15:02:59.110 ,7,1,544.,4.8,0.,4.8,0.,4.8,0.,4.8
1979-03-06 15:03:03.910 ,7,1,312.,4.8,0.,4.8,0.,4.8,0.,4.8
1979-03-06 15:03:08.710 ,4,1,208.,4.8,0.,4.8,0.,4.8,0.,4.8
1979-03-06 15:03:13.510 ,4,1,328.,4.8,0.,4.8,0.,4.8,0.,4.8
1979-03-06 15:03:18.310 ,4,1,656.,4.8,0.,4.8,0.,4.8,0.,4.8
1979-03-06 15:03:23.110 ,4,1,656.,4.8,0.,4.8,0.,4.8,0.,4.8
1979-03-06 15:03:27.910 ,4,1,720.,4.8,0.,4.8,0.,4.8,1.,4.8
1979-03-06 15:03:32.710 ,0,1,592.,4.8,0.,4.8,0.,4.8,2.,4.8
1979-03-06 15:03:37.510 ,0,1,504.,4.8,0.,4.8,0.,4.8,1.,4.8
1979-03-06 15:03:42.310 ,0,1,624.,4.8,0.,4.8,0.,4.8,0.,4.8
1979-03-06 15:03:47.110 ,0,1,592.,4.8,0.,4.8,0.,4.8,1.,4.8
1979-03-06 15:03:51.910 ,0,1,608.,4.8,0.,4.8,0.,4.8,0.,4.8
1979-03-06 15:03:56.710 ,3,1,640.,4.8,0.,4.8,0.,4.8,0.,4.8
1979-03-06 15:04:01.510 ,3,1,576.,4.8,0.,4.8,0.,4.8,0.,4.8
1979-03-06 15:04:06.310 ,3,1,624.,4.8,0.,4.8,0.,4.8,1.,4.8
1979-03-06 15:04:11.110 ,3,1,704.,4.8,0.,4.8,0.,4.8,0.,4.8
1979-03-06 15:04:15.910 ,3,1,560.,4.8,0.,4.8,0.,4.8,0.,4.8
1979-03-06 15:04:20.710 ,7,1,544.,4.8,0.,4.8,0.,4.8,0.,4.8
1979-03-06 15:04:25.510 ,7,1,656.,4.8,0.,4.8,0.,4.8,0.,4.8
1979-03-06 15:04:30.310 ,7,1,608.,4.8,0.,4.8,0.,4.8,0.,4.8
1979-03-06 15:04:35.110 ,7,1,608.,4.8,0.,4.8,0.,4.8,0.,4.8
1979-03-06 15:04:39.910 ,7,1,344.,4.8,0.,4.8,0.,4.8,0.,4.8
1979-03-06 15:04:44.710 ,5,1,188.,4.8,0.,4.8,0.,4.8,0.,4.8
1979-03-06 15:04:49.510 ,5,1,272.,4.8,0.,4.8,0.,4.8,0.,4.8
1979-03-06 15:04:54.310 ,5,1,528.,4.8,0.,4.8,0.,4.8,1.,4.8
1979-03-06 15:04:59.110 ,5,1,544.,4.8,0.,4.8,0.,4.8,0.,4.8
1979-03-06 15:05:03.910 ,5,1,,0,,0,,0,,0
1979-03-06 15:05:08.710 ,0,1,416.,4.8,0.,4.8,0.,4.8,1.,4.8
1979-03-06 15:05:13.510 ,0,1,368.,4.8,0.,4.8,0.,4.8,2.,4.8
1979-03-06 15:05:18.310 ,0,1,488.,4.8,0.,4.8,0.,4.8,1.,4.8
1979-03-06 15:05:23.110 ,0,1,528.,4.8,0.,4.8,0.,4.8,1.,4.8
1979-03-06 15:05:27.910 ,0,1,512.,4.8,0.,4.8,0.,4.8,0.,4.8
1979-03-06 15:05:32.710 ,3,1,448.,4.8,0.,4.8,0.,4.8,0.,4.8
1979-03-06 15:05:37.510 ,3,1,424.,4.8,0.,4.8,0.,4.8,0.,4.8
1979-03-06 15:05:42.310 ,3,1,456.,4.8,0.,4.8,0.,4.8,0.,4.8
1979-03-06 15:05:47.110 ,3,1,488.,4.8,0.,4.8,0.,4.8,0.,4.8
1979-03-06 15:05:51.910 ,3,1,400.,4.8,0.,4.8,0.,4.8,1.,4.8
1979-03-06 15:05:56.710 ,7,1,424.,4.8,0.,4.8,0.,4.8,0.,4.8
1979-03-06 15:06:01.510 ,7,1,488.,4.8,0.,4.8,0.,4.8,1.,4.8
1979-03-06 15:06:06.310 ,7,1,544.,4.8,0.,4.8,0.,4.8,1.,4.8
1979-03-06 15:06:11.110 ,7,1,576.,4.8,0.,4.8,0.,4.8,2.,4.8
1979-03-06 15:06:15.910 ,7,1,296.,4.8,0.,4.8,0.,4.8,0.,4.8
1979-03-06 15:06:20.710 ,4,1,216.,4.8,0.,4.8,0.,4.8,0.,4.8
1979-03-06 15:06:25.510 ,4,1,288.,4.8,0.,4.8,0.,4.8,2.,4.8
1979-03-06 15:06:30.310 ,4,1,608.,4.8,0.,4.8,0.,4.8,1.,4.8
1979-03-06 15:06:35.110 ,4,1,624.,4.8,0.,4.8,0.,4.8,1.,4.8
1979-03-06 15:06:39.910 ,4,1,640.,4.8,0.,4.8,0.,4.8,2.,4.8
1979-03-06 15:06:44.710 ,0,1,528.,4.8,0.,4.8,0.,4.8,1.,4.8
1979-03-06 15:06:49.510 ,0,1,456.,4.8,0.,4.8,0.,4.8,0.,4.8
1979-03-06 15:06:54.310 ,0,1,592.,4.8,0.,4.8,0.,4.8,1.,4.8
1979-03-06 15:06:59.110 ,0,1,592.,4.8,0.,4.8,0.,4.8,0.,4.8
1979-03-06 15:07:03.910 ,0,1,544.,4.8,0.,4.8,0.,4.8,0.,4.8
1979-03-06 15:07:08.710 ,3,1,528.,4.8,0.,4.8,0.,4.8,2.,4.8
1979-03-06 15:07:13.510 ,3,1,544.,4.8,0.,4.8,0.,4.8,1.,4.8
1979-03-06 15:07:18.310 ,3,1,512.,4.8,0.,4.8,0.,4.8,0.,4.8
1979-03-06 15:07:23.110 ,3,1,512.,4.8,0.,4.8,0.,4.8,1.,4.8
1979-03-06 15:07:27.910 ,3,1,440.,4.8,0.,4.8,0.,4.8,0.,4.8
1979-03-06 15:07:32.710 ,7,1,456.,4.8,0.,4.8,0.,4.8,1.,4.8
1979-03-06 15:07:37.510 ,7,1,464.,4.8,0.,4.8,0.,4.8,1.,4.8
1979-03-06 15:07:42.310 ,7,1,392.,4.8,0.,4.8,0.,4.8,2.,4.8
1979-03-06 15:07:47.110 ,7,1,344.,4.8,0.,4.8,0.,4.8,2.,4.8
1979-03-06 15:07:51.910 ,7,1,164.,4.8,0.,4.8,0.,4.8,0.,4.8
1979-03-06 15:07:56.710 ,4,1,112.,4.8,0.,4.8,0.,4.8,0.,4.8
1979-03-06 15:08:01.510 ,4,1,160.,4.8,0.,4.8,0.,4.8,0.,4.8
1979-03-06 15:08:06.310 ,4,1,384.,4.8,0.,4.8,0.,4.8,1.,4.8
1979-03-06 15:08:11.110 ,4,1,408.,4.8,0.,4.8,0.,4.8,2.,4.8
1979-03-06 15:08:15.910 ,4,1,360.,4.8,0.,4.8,0.,4.8,0.,4.8
1979-03-06 15:08:20.710 ,0,1,304.,4.8,0.,4.8,0.,4.8,2.,4.8
1979-03-06 15:08:25.510 ,0,1,224.,4.8,0.,4.8,0.,4.8,0.,4.8
1979-03-06 15:08:30.310 ,0,1,304.,4.8,0.,4.8,0.,4.8,0.,4.8
1979-03-06 15:08:35.110 ,0,1,304.,4.8,0.,4.8,0.,4.8,0.,4.8
1979-03-06 15:08:39.910 ,0,1,392.,4.8,0.,4.8,0.,4.8,1.,4.8
1979-03-06 15:08:44.710 ,3,1,424.,4.8,0.,4.8,0.,4.8,0.,4.8
1979-03-06 15:08:49.510 ,3,1,440.,4.8,0.,4.8,0.,4.8,0.,4.8
1979-03-06 15:08:54.310 ,3,1,424.,4.8,0.,4.8,0.,4.8,1.,4.8
1979-03-06 15:08:59.110 ,3,1,384.,4.8,0.,4.8,0.,4.8,1.,4.8
1979-03-06 15:09:03.910 ,3,1,320.,4.8,0.,4.8,0.,4.8,1.,4.8
1979-03-06 15:09:08.710 ,7,1,376.,4.8,0.,4.8,0.,4.8,1.,4.8
1979-03-06 15:09:13.510 ,7,1,496.,4.8,0.,4.8,0.,4.8,1.,4.8
1979-03-06 15:09:18.310 ,7,1,512.,4.8,0.,4.8,0.,4.8,0.,4.8
1979-03-06 15:09:23.110 ,7,1,456.,4.8,0.,4.8,0.,4.8,0.,4.8
1979-03-06 15:09:27.910 ,7,1,280.,4.8,0.,4.8,0.,4.8,1.,4.8
1979-03-06 15:09:32.710 ,4,1,196.,4.8,0.,4.8,0.,4.8,0.,4.8
1979-03-06 15:09:37.510 ,4,1,220.,4.8,0.,4.8,0.,4.8,0.,4.8
1979-03-06 15:09:42.310 ,4,1,464.,4.8,0.,4.8,0.,4.8,0.,4.8
1979-03-06 15:09:47.110 ,4,1,480.,4.8,0.,4.8,0.,4.8,1.,4.8
1979-03-06 15:09:51.910 ,4,1,456.,4.8,0.,4.8,0.,4.8,0.,4.8
1979-03-06 15:09:56.710 ,0,1,408.,4.8,0.,4.8,0.,4.8,1.,4.8
1979-03-06 15:10:01.510 ,0,1,360.,4.8,0.,4.8,0.,4.8,0.,4.8
1979-03-06 15:10:06.310 ,0,1,488.,4.8,0.,4.8,0.,4.8,1.,4.8
1979-03-06 15:10:11.110 ,0,1,512.,4.8,0.,4.8,0.,4.8,0.,4.8
1979-03-06 15:10:15.910 ,0,1,440.,4.8,0.,4.8,0.,4.8,0.,4.8
1979-03-06 15:10:20.710 ,3,1,456.,4.8,0.,4.8,0.,4.8,0.,4.8
1979-03-06 15:10:25.510 ,3,1,456.,4.8,0.,4.8,0.,4.8,3.,4.8
1979-03-06 15:10:30.310 ,3,1,424.,4.8,0.,4.8,0.,4.8,0.,4.8
1979-03-06 15:10:35.110 ,3,1,416.,4.8,0.,4.8,0.,4.8,0.,4.8
1979-03-06 15:10:39.910 ,3,1,352.,4.8,0.,4.8,0.,4.8,0.,4.8
1979-03-06 15:10:44.710 ,7,1,472.,4.8,0.,4.8,0.,4.8,1.,4.8
1979-03-06 15:10:49.510 ,7,1,544.,4.8,0.,4.8,0.,4.8,2.,4.8
1979-03-06 15:10:54.310 ,7,1,592.,4.8,0.,4.8,0.,4.8,2.,4.8
1979-03-06 15:10:59.110 ,7,1,512.,4.8,0.,4.8,0.,4.8,1.,4.8
1979-03-06 15:11:03.910 ,7,1,288.,4.8,0.,4.8,0.,4.8,0.,4.8
1979-03-06 15:11:08.710 ,4,1,204.,4.8,0.,4.8,0.,4.8,0.,4.8
1979-03-06 15:11:13.510 ,4,1,280.,4.8,0.,4.8,0.,4.8,1.,4.8
1979-03-06 15:11:18.310 ,4,1,528.,4.8,0.,4.8,0.,4.8,0.,4.8
1979-03-06 15:11:23.110 ,4,1,576.,4.8,0.,4.8,0.,4.8,3.,4.8
1979-03-06 15:11:27.910 ,4,1,592.,4.8,0.,4.8,0.,4.8,0.,4.8
1979-03-06 15:11:32.710 ,0,1,512.,4.8,0.,4.8,0.,4.8,1.,4.8
1979-03-06 15:11:37.510 ,0,1,576.,4.8,0.,4.8,0.,4.8,0.,4.8
1979-03-06 15:11:42.310 ,0,1,672.,4.8,0.,4.8,0.,4.8,2.,4.8
1979-03-06 15:11:47.110 ,0,1,752.,4.8,0.,4.8,0.,4.8,1.,4.8
1979-03-06 15:11:51.910 ,0,1,688.,4.8,0.,4.8,0.,4.8,1.,4.8
1979-03-06 15:11:56.710 ,3,1,704.,4.8,0.,4.8,0.,4.8,1.,4.8
1979-03-06 15:12:01.510 ,3,1,752.,4.8,0.,4.8,0.,4.8,0.,4.8
1979-03-06 15:12:06.310 ,3,1,736.,4.8,0.,4.8,0.,4.8,0.,4.8
1979-03-06 15:12:11.110 ,3,1,672.,4.8,0.,4.8,0.,4.8,3.,4.8
1979-03-06 15:12:15.910 ,3,1,560.,4.8,0.,4.8,0.,4.8,2.,4.8
1979-03-06 15:12:20.710 ,7,1,608.,4.8,0.,4.8,0.,4.8,2.,4.8
1979-03-06 15:12:25.510 ,7,1,704.,4.8,0.,4.8,0.,4.8,3.,4.8
1979-03-06 15:12:30.310 ,7,1,736.,4.8,0.,4.8,0.,4.8,1.,4.8
1979-03-06 15:12:35.110 ,7,1,704.,4.8,0.,4.8,0.,4.8,0.,4.8
1979-03-06 15:12:39.910 ,7,1,352.,4.8,0.,4.8,0.,4.8,0.,4.8
1979-03-06 15:12:44.710 ,4,1,264.,4.8,0.,4.8,0.,4.8,0.,4.8
1979-03-06 15:12:49.510 ,4,1,360.,4.8,0.,4.8,0.,4.8,0.,4.8
1979-03-06 15:12:54.310 ,4,1,688.,4.8,0.,4.8,0.,4.8,0.,4.8
1979-03-06 15:12:59.110 ,4,1,672.,4.8,0.,4.8,0.,4.8,0.,4.8
1979-03-06 15:13:03.910 ,4,1,704.,4.8,0.,4.8,0.,4.8,2.,4.8
1979-03-06 15:13:08.710 ,0,1,544.,4.8,0.,4.8,0.,4.8,3.,4.8
1979-03-06 15:13:13.510 ,0,1,560.,4.8,0.,4.8,0.,4.8,2.,4.8
1979-03-06 15:13:18.310 ,0,1,688.,4.8,0.,4.8,0.,4.8,0.,4.8
1979-03-06 15:13:23.110 ,0,1,656.,4.8,0.,4.8,0.,4.8,0.,4.8
1979-03-06 15:13:27.910 ,0,1,608.,4.8,0.,4.8,0.,4.8,1.,4.8
1979-03-06 15:13:32.710 ,3,1,608.,4.8,0.,4.8,0.,4.8,0.,4.8
1979-03-06 15:13:37.510 ,3,1,624.,4.8,0.,4.8,0.,4.8,1.,4.8
1979-03-06 15:13:42.310 ,3,1,720.,4.8,0.,4.8,0.,4.8,1.,4.8
1979-03-06 15:13:47.110 ,3,1,688.,4.8,0.,4.8,0.,4.8,1.,4.8
1979-03-06 15:13:51.910 ,3,1,528.,4.8,0.,4.8,0.,4.8,1.,4.8
1979-03-06 15:13:56.710 ,7,1,576.,4.8,0.,4.8,0.,4.8,1.,4.8
1979-03-06 15:14:01.510 ,7,1,640.,4.8,0.,4.8,0.,4.8,3.,4.8
1979-03-06 15:14:06.310 ,7,1,656.,4.8,0.,4.8,0.,4.8,2.,4.8
1979-03-06 15:14:11.110 ,7,1,592.,4.8,0.,4.8,0.,4.8,2.,4.8
1979-03-06 15:14:15.910 ,7,1,360.,4.8,0.,4.8,0.,4.8,0.,4.8
1979-03-06 15:14:20.710 ,4,1,248.,4.8,0.,4.8,0.,4.8,0.,4.8
1979-03-06 15:14:25.510 ,4,1,336.,4.8,0.,4.8,0.,4.8,0.,4.8
1979-03-06 15:14:30.310 ,4,1,560.,4.8,0.,4.8,0.,4.8,3.,4.8
1979-03-06 15:14:35.110 ,4,1,624.,4.8,0.,4.8,0.,4.8,1.,4.8
1979-03-06 15:14:39.910 ,4,1,720.,4.8,0.,4.8,0.,4.8,2.,4.8
1979-03-06 15:14:44.710 ,0,1,504.,4.8,0.,4.8,0.,4.8,2.,4.8
1979-03-06 15:14:49.510 ,0,1,512.,4.8,0.,4.8,0.,4.8,1.,4.8
1979-03-06 15:14:54.310 ,0,1,592.,4.8,0.,4.8,0.,4.8,1.,4.8
1979-03-06 15:14:59.110 ,0,1,608.,4.8,0.,4.8,0.,4.8,2.,4.8
1979-03-06 15:15:03.910 ,0,1,608.,4.8,0.,4.8,0.,4.8,2.,4.8
1979-03-06 15:15:08.710 ,3,1,608.,4.8,0.,4.8,0.,4.8,2.,4.8
1979-03-06 15:15:13.510 ,3,1,608.,4.8,0.,4.8,0.,4.8,1.,4.8
1979-03-06 15:15:18.310 ,3,1,640.,4.8,0.,4.8,0.,4.8,1.,4.8
1979-03-06 15:15:23.110 ,3,1,752.,4.8,0.,4.8,0.,4.8,0.,4.8
1979-03-06 15:15:27.910 ,3,1,544.,4.8,0.,4.8,0.,4.8,0.,4.8
1979-03-06 15:15:32.710 ,7,1,608.,4.8,0.,4.8,0.,4.8,2.,4.8
1979-03-06 15:15:37.510 ,7,1,704.,4.8,0.,4.8,0.,4.8,2.,4.8
1979-03-06 15:15:42.310 ,7,1,752.,4.8,0.,4.8,0.,4.8,3.,4.8
1979-03-06 15:15:47.110 ,7,1,720.,4.8,0.,4.8,0.,4.8,1.,4.8
1979-03-06 15:15:51.910 ,7,1,384.,4.8,0.,4.8,0.,4.8,0.,4.8
1979-03-06 15:15:56.710 ,4,1,240.,4.8,0.,4.8,0.,4.8,0.,4.8
1979-03-06 15:16:01.510 ,4,1,368.,4.8,0.,4.8,0.,4.8,0.,4.8
1979-03-06 15:16:06.310 ,4,1,688.,4.8,0.,4.8,0.,4.8,1.,4.8
1979-03-06 15:16:11.110 ,4,1,752.,4.8,0.,4.8,0.,4.8,0.,4.8
1979-03-06 15:16:15.910 ,4,1,784.,4.8,0.,4.8,0.,4.8,1.,4.8
1979-03-06 15:16:20.710 ,0,1,624.,4.8,0.,4.8,0.,4.8,1.,4.8
1979-03-06 15:16:25.510 ,0,1,576.,4.8,0.,4.8,0.,4.8,0.,4.8
1979-03-06 15:16:30.310 ,0,1,752.,4.8,0.,4.8,0.,4.8,3.,4.8
1979-03-06 15:16:35.110 ,0,1,720.,4.8,0.,4.8,0.,4.8,1.,4.8
1979-03-06 15:16:39.910 ,0,1,672.,4.8,0.,4.8,0.,4.8,2.,4.8
1979-03-06 15:16:44.710 ,3,1,672.,4.8,0.,4.8,0.,4.8,0.,4.8
1979-03-06 15:16:49.510 ,3,1,640.,4.8,0.,4.8,0.,4.8,0.,4.8
1979-03-06 15:16:54.310 ,3,1,736.,4.8,0.,4.8,0.,4.8,0.,4.8
1979-03-06 15:16:59.110 ,3,1,720.,4.8,0.,4.8,0.,4.8,0.,4.8
1979-03-06 15:17:03.910 ,3,1,528.,4.8,0.,4.8,0.,4.8,1.,4.8
1979-03-06 15:17:08.710 ,7,1,624.,4.8,0.,4.8,0.,4.8,3.,4.8
1979-03-06 15:17:13.510 ,7,1,736.,4.8,0.,4.8,0.,4.8,1.,4.8
1979-03-06 15:17:18.310 ,7,1,720.,4.8,0.,4.8,0.,4.8,1.,4.8
1979-03-06 15:17:23.110 ,7,1,752.,4.8,0.,4.8,0.,4.8,1.,4.8
1979-03-06 15:17:27.910 ,7,1,368.,4.8,0.,4.8,0.,4.8,0.,4.8
1979-03-06 15:17:32.710 ,4,1,232.,4.8,0.,4.8,0.,4.8,0.,4.8
1979-03-06 15:17:37.510 ,4,1,360.,4.8,0.,4.8,0.,4.8,0.,4.8
1979-03-06 15:17:42.310 ,4,1,672.,4.8,0.,4.8,0.,4.8,1.,4.8
1979-03-06 15:17:47.110 ,4,1,672.,4.8,0.,4.8,0.,4.8,4.,4.8
1979-03-06 15:17:51.910 ,4,1,672.,4.8,0.,4.8,0.,4.8,1.,4.8
1979-03-06 15:17:56.710 ,0,1,624.,4.8,0.,4.8,0.,4.8,1.,4.8
1979-03-06 15:18:01.510 ,0,1,528.,4.8,0.,4.8,0.,4.8,0.,4.8
1979-03-06 15:18:06.310 ,0,1,672.,4.8,0.,4.8,0.,4.8,1.,4.8
1979-03-06 15:18:11.110 ,0,1,688.,4.8,0.,4.8,0.,4.8,3.,4.8
1979-03-06 15:18:15.910 ,0,1,688.,4.8,0.,4.8,0.,4.8,2.,4.8
1979-03-06 15:18:20.710 ,3,1,672.,4.8,0.,4.8,0.,4.8,1.,4.8
1979-03-06 15:18:25.510 ,3,1,688.,4.8,0.,4.8,0.,4.8,1.,4.8
1979-03-06 15:18:30.310 ,3,1,672.,4.8,0.,4.8,0.,4.8,2.,4.8
1979-03-06 15:18:35.110 ,3,1,736.,4.8,0.,4.8,0.,4.8,2.,4.8
1979-03-06 15:18:39.910 ,3,1,560.,4.8,0.,4.8,0.,4.8,3.,4.8
1979-03-06 15:18:44.710 ,7,1,624.,4.8,0.,4.8,0.,4.8,2.,4.8
1979-03-06 15:18:49.510 ,7,1,736.,4.8,0.,4.8,0.,4.8,1.,4.8
1979-03-06 15:18:54.310 ,7,1,736.,4.8,0.,4.8,0.,4.8,2.,4.8
1979-03-06 15:18:59.110 ,7,1,672.,4.8,0.,4.8,0.,4.8,0.,4.8
1979-03-06 15:19:03.910 ,7,1,400.,4.8,0.,4.8,0.,4.8,0.,4.8
1979-03-06 15:19:08.710 ,4,1,272.,4.8,0.,4.8,0.,4.8,0.,4.8
1979-03-06 15:19:13.510 ,4,1,304.,4.8,0.,4.8,0.,4.8,4.,4.8
1979-03-06 15:19:18.310 ,4,1,592.,4.8,0.,4.8,0.,4.8,0.,4.8
1979-03-06 15:19:23.110 ,4,1,624.,4.8,0.,4.8,0.,4.8,1.,4.8
1979-03-06 15:19:27.910 ,4,1,640.,4.8,0.,4.8,0.,4.8,3.,4.8
1979-03-06 15:19:32.710 ,0,1,560.,4.8,0.,4.8,0.,4.8,0.,4.8
1979-03-06 15:19:37.510 ,0,1,480.,4.8,0.,4.8,0.,4.8,1.,4.8
1979-03-06 15:19:42.310 ,0,1,560.,4.8,0.,4.8,0.,4.8,0.,4.8
1979-03-06 15:19:47.110 ,0,1,608.,4.8,0.,4.8,0.,4.8,0.,4.8
1979-03-06 15:19:51.910 ,0,1,592.,4.8,0.,4.8,0.,4.8,2.,4.8
1979-03-06 15:19:56.710 ,3,1,560.,4.8,0.,4.8,0.,4.8,1.,4.8
1979-03-06 15:20:01.510 ,3,1,624.,4.8,0.,4.8,0.,4.8,0.,4.8
1979-03-06 15:20:06.310 ,3,1,640.,4.8,0.,4.8,0.,4.8,0.,4.8
1979-03-06 15:20:11.110 ,3,1,608.,4.8,0.,4.8,0.,4.8,4.,4.8
1979-03-06 15:20:15.910 ,3,1,512.,4.8,0.,4.8,0.,4.8,1.,4.8
1979-03-06 15:20:20.710 ,7,1,560.,4.8,0.,4.8,0.,4.8,0.,4.8
1979-03-06 15:20:25.510 ,7,1,672.,4.8,0.,4.8,0.,4.8,1.,4.8
1979-03-06 15:20:30.310 ,7,1,704.,4.8,0.,4.8,0.,4.8,0.,4.8
1979-03-06 15:20:35.110 ,7,1,624.,4.8,0.,4.8,0.,4.8,1.,4.8
1979-03-06 15:20:39.910 ,7,1,368.,4.8,0.,4.8,0.,4.8,0.,4.8
1979-03-06 15:20:44.710 ,4,1,252.,4.8,0.,4.8,0.,4.8,0.,4.8
1979-03-06 15:20:49.510 ,4,1,328.,4.8,0.,4.8,0.,4.8,0.,4.8
1979-03-06 15:20:54.310 ,4,1,656.,4.8,0.,4.8,0.,4.8,4.,4.8
1979-03-06 15:20:59.110 ,4,1,672.,4.8,0.,4.8,0.,4.8,1.,4.8
1979-03-06 15:21:03.910 ,4,1,640.,4.8,0.,4.8,0.,4.8,3.,4.8
1979-03-06 15:21:08.710 ,0,1,544.,4.8,0.,4.8,0.,4.8,3.,4.8
1979-03-06 15:21:13.510 ,0,1,544.,4.8,0.,4.8,0.,4.8,4.,4.8
1979-03-06 15:21:18.310 ,0,1,576.,4.8,0.,4.8,0.,4.8,2.,4.8
1979-03-06 15:21:23.110 ,0,1,672.,4.8,0.,4.8,0.,4.8,2.,4.8
1979-03-06 15:21:27.910 ,0,1,656.,4.8,0.,4.8,0.,4.8,0.,4.8
1979-03-06 15:21:32.710 ,3,1,608.,4.8,0.,4.8,0.,4.8,0.,4.8
1979-03-06 15:21:37.510 ,3,1,640.,4.8,0.,4.8,0.,4.8,3.,4.8
1979-03-06 15:21:42.310 ,3,1,704.,4.8,0.,4.8,0.,4.8,2.,4.8
1979-03-06 15:21:47.110 ,3,1,656.,4.8,0.,4.8,0.,4.8,2.,4.8
1979-03-06 15:21:51.910 ,3,1,624.,4.8,0.,4.8,0.,4.8,5.,4.8
1979-03-06 15:21:56.710 ,7,1,608.,4.8,0.,4.8,0.,4.8,2.,4.8
1979-03-06 15:22:01.510 ,7,1,672.,4.8,0.,4.8,0.,4.8,1.,4.8
1979-03-06 15:22:06.310 ,7,1,688.,4.8,0.,4.8,0.,4.8,2.,4.8
1979-03-06 15:22:11.110 ,7,1,688.,4.8,0.,4.8,0.,4.8,2.,4.8
1979-03-06 15:22:15.910 ,7,1,352.,4.8,0.,4.8,0.,4.8,3.,4.8
1979-03-06 15:22:20.710 ,4,1,244.,4.8,0.,4.8,0.,4.8,0.,4.8
1979-03-06 15:22:25.510 ,4,1,328.,4.8,0.,4.8,0.,4.8,0.,4.8
1979-03-06 15:22:30.310 ,4,1,672.,4.8,0.,4.8,0.,4.8,0.,4.8
1979-03-06 15:22:35.110 ,4,1,704.,4.8,0.,4.8,0.,4.8,1.,4.8
1979-03-06 15:22:39.910 ,4,1,752.,4.8,0.,4.8,0.,4.8,1.,4.8
1979-03-06 15:22:44.710 ,0,1,672.,4.8,0.,4.8,0.,4.8,2.,4.8
1979-03-06 15:22:49.510 ,0,1,608.,4.8,0.,4.8,0.,4.8,3.,4.8
1979-03-06 15:22:54.310 ,0,1,784.,4.8,0.,4.8,0.,4.8,3.,4.8
1979-03-06 15:22:59.110 ,0,1,768.,4.8,0.,4.8,0.,4.8,0.,4.8
1979-03-06 15:23:03.910 ,0,1,736.,4.8,0.,4.8,0.,4.8,1.,4.8
1979-03-06 15:23:08.710 ,3,1,736.,4.8,0.,4.8,0.,4.8,2.,4.8
1979-03-06 15:23:13.510 ,3,1,768.,4.8,0.,4.8,0.,4.8,2.,4.8
1979-03-06 15:23:18.310 ,3,1,752.,4.8,0.,4.8,0.,4.8,3.,4.8
1979-03-06 15:23:23.110 ,3,1,736.,4.8,0.,4.8,0.,4.8,2.,4.8
1979-03-06 15:23:27.910 ,3,1,560.,4.8,0.,4.8,0.,4.8,1.,4.8
1979-03-06 15:23:32.710 ,7,1,592.,4.8,0.,4.8,0.,4.8,2.,4.8
1979-03-06 15:23:37.510 ,7,1,768.,4.8,0.,4.8,0.,4.8,0.,4.8
1979-03-06 15:23:42.310 ,7,1,784.,4.8,0.,4.8,0.,4.8,0.,4.8
1979-03-06 15:23:47.110 ,7,1,688.,4.8,0.,4.8,0.,4.8,1.,4.8
1979-03-06 15:23:51.910 ,7,1,368.,4.8,0.,4.8,0.,4.8,1.,4.8
1979-03-06 15:23:56.710 ,4,1,264.,4.8,0.,4.8,0.,4.8,0.,4.8
1979-03-06 15:24:01.510 ,4,1,352.,4.8,0.,4.8,0.,4.8,0.,4.8
1979-03-06 15:24:06.310 ,4,1,704.,4.8,0.,4.8,0.,4.8,2.,4.8
1979-03-06 15:24:11.110 ,4,1,720.,4.8,0.,4.8,0.,4.8,3.,4.8
1979-03-06 15:24:15.910 ,4,1,768.,4.8,0.,4.8,0.,4.8,3.,4.8
1979-03-06 15:24:20.710 ,0,1,672.,4.8,0.,4.8,0.,4.8,3.,4.8
1979-03-06 15:24:25.510 ,0,1,672.,4.8,0.,4.8,0.,4.8,2.,4.8
1979-03-06 15:24:30.310 ,0,1,832.,4.8,0.,4.8,0.,4.8,3.,4.8
1979-03-06 15:24:35.110 ,0,1,816.,4.8,0.,4.8,0.,4.8,2.,4.8
1979-03-06 15:24:39.910 ,0,1,784.,4.8,0.,4.8,0.,4.8,1.,4.8
1979-03-06 15:24:44.710 ,3,1,752.,4.8,0.,4.8,0.,4.8,1.,4.8
1979-03-06 15:24:49.510 ,3,1,768.,4.8,0.,4.8,0.,4.8,4.,4.8
1979-03-06 15:24:54.310 ,3,1,816.,4.8,0.,4.8,0.,4.8,1.,4.8
1979-03-06 15:24:59.110 ,3,1,864.,4.8,0.,4.8,0.,4.8,2.,4.8
1979-03-06 15:25:03.910 ,3,1,736.,4.8,0.,4.8,0.,4.8,2.,4.8
1979-03-06 15:25:08.710 ,7,1,688.,4.8,0.,4.8,0.,4.8,3.,4.8
1979-03-06 15:25:13.510 ,7,1,848.,4.8,0.,4.8,0.,4.8,2.,4.8
1979-03-06 15:25:18.310 ,7,1,912.,4.8,0.,4.8,0.,4.8,4.,4.8
1979-03-06 15:25:23.110 ,7,1,880.,4.8,0.,4.8,0.,4.8,1.,4.8
1979-03-06 15:25:27.910 ,7,1,448.,4.8,0.,4.8,0.,4.8,0.,4.8
1979-03-06 15:25:32.710 ,4,1,272.,4.8,0.,4.8,0.,4.8,0.,4.8
1979-03-06 15:25:37.510 ,4,1,400.,4.8,0.,4.8,0.,4.8,3.,4.8
1979-03-06 15:25:42.310 ,4,1,832.,4.8,0.,4.8,0.,4.8,1.,4.8
1979-03-06 15:25:47.110 ,4,1,864.,4.8,0.,4.8,0.,4.8,3.,4.8
1979-03-06 15:25:51.910 ,4,1,880.,4.8,0.,4.8,0.,4.8,2.,4.8
1979-03-06 15:25:56.710 ,0,1,752.,4.8,0.,4.8,0.,4.8,2.,4.8
1979-03-06 15:26:01.510 ,0,1,768.,4.8,0.,4.8,0.,4.8,3.,4.8
1979-03-06 15:26:06.310 ,0,1,880.,4.8,0.,4.8,0.,4.8,0.,4.8
1979-03-06 15:26:11.110 ,0,1,848.,4.8,0.,4.8,0.,4.8,0.,4.8
1979-03-06 15:26:15.910 ,0,1,784.,4.8,0.,4.8,0.,4.8,3.,4.8
1979-03-06 15:26:20.710 ,3,1,864.,4.8,0.,4.8,0.,4.8,1.,4.8
1979-03-06 15:26:25.510 ,3,1,896.,4.8,0.,4.8,0.,4.8,3.,4.8
1979-03-06 15:26:30.310 ,3,1,848.,4.8,0.,4.8,0.,4.8,0.,4.8
1979-03-06 15:26:35.110 ,3,1,864.,4.8,0.,4.8,0.,4.8,3.,4.8
1979-03-06 15:26:39.910 ,3,1,752.,4.8,0.,4.8,0.,4.8,1.,4.8
1979-03-06 15:26:44.710 ,7,1,800.,4.8,0.,4.8,0.,4.8,1.,4.8
1979-03-06 15:26:49.510 ,7,1,944.,4.8,0.,4.8,0.,4.8,3.,4.8
1979-03-06 15:26:54.310 ,7,1,912.,4.8,0.,4.8,0.,4.8,1.,4.8
1979-03-06 15:26:59.110 ,7,1,928.,4.8,0.,4.8,0.,4.8,3.,4.8
1979-03-06 15:27:03.910 ,7,1,496.,4.8,0.,4.8,0.,4.8,1.,4.8
1979-03-06 15:27:08.710 ,4,1,320.,4.8,0.,4.8,0.,4.8,0.,4.8
1979-03-06 15:27:13.510 ,4,1,424.,4.8,0.,4.8,0.,4.8,1.,4.8
1979-03-06 15:27:18.310 ,4,1,864.,4.8,0.,4.8,0.,4.8,2.,4.8
1979-03-06 15:27:23.110 ,4,1,928.,4.8,0.,4.8,0.,4.8,3.,4.8
1979-03-06 15:27:27.910 ,4,1,880.,4.8,0.,4.8,0.,4.8,2.,4.8
1979-03-06 15:27:32.710 ,0,1,704.,4.8,0.,4.8,0.,4.8,1.,4.8
1979-03-06 15:27:37.510 ,0,1,688.,4.8,0.,4.8,0.,4.8,1.,4.8
1979-03-06 15:27:42.310 ,0,1,784.,4.8,0.,4.8,0.,4.8,1.,4.8
1979-03-06 15:27:47.110 ,0,1,752.,4.8,0.,4.8,0.,4.8,1.,4.8
1979-03-06 15:27:51.910 ,0,1,816.,4.8,0.,4.8,0.,4.8,3.,4.8
1979-03-06 15:27:56.710 ,3,1,752.,4.8,0.,4.8,0.,4.8,0.,4.8
1979-03-06 15:28:01.510 ,3,1,720.,4.8,0.,4.8,0.,4.8,2.,4.8
1979-03-06 15:28:06.310 ,3,1,784.,4.8,0.,4.8,0.,4.8,2.,4.8
1979-03-06 15:28:11.110 ,3,1,752.,4.8,0.,4.8,0.,4.8,2.,4.8
1979-03-06 15:28:15.910 ,3,1,608.,4.8,0.,4.8,0.,4.8,3.,4.8
1979-03-06 15:28:20.710 ,7,1,688.,4.8,0.,4.8,0.,4.8,2.,4.8
1979-03-06 15:28:25.510 ,7,1,800.,4.8,0.,4.8,0.,4.8,3.,4.8
1979-03-06 15:28:30.310 ,7,1,848.,4.8,0.,4.8,0.,4.8,5.,4.8
1979-03-06 15:28:35.110 ,7,1,752.,4.8,0.,4.8,0.,4.8,2.,4.8
1979-03-06 15:28:39.910 ,7,1,392.,4.8,0.,4.8,0.,4.8,2.,4.8
1979-03-06 15:28:44.710 ,5,1,248.,4.8,0.,4.8,0.,4.8,0.,4.8
1979-03-06 15:28:49.510 ,5,1,368.,4.8,0.,4.8,0.,4.8,0.,4.8
1979-03-06 15:28:54.310 ,5,1,640.,4.8,0.,4.8,0.,4.8,1.,4.8
1979-03-06 15:28:59.110 ,5,1,752.,4.8,0.,4.8,0.,4.8,2.,4.8
1979-03-06 15:29:03.910 ,5,1,,0,,0,,0,,0
1979-03-06 15:29:08.710 ,0,1,640.,4.8,0.,4.8,0.,4.8,1.,4.8
1979-03-06 15:29:13.510 ,0,1,496.,4.8,0.,4.8,0.,4.8,1.,4.8
1979-03-06 15:29:18.310 ,0,1,640.,4.8,0.,4.8,0.,4.8,2.,4.8
1979-03-06 15:29:23.110 ,0,1,640.,4.8,0.,4.8,0.,4.8,2.,4.8
1979-03-06 15:29:27.910 ,0,1,624.,4.8,0.,4.8,0.,4.8,2.,4.8
1979-03-06 15:29:32.710 ,3,1,592.,4.8,0.,4.8,0.,4.8,3.,4.8
1979-03-06 15:29:37.510 ,3,1,624.,4.8,0.,4.8,0.,4.8,1.,4.8
1979-03-06 15:29:42.310 ,3,1,592.,4.8,0.,4.8,0.,4.8,1.,4.8
1979-03-06 15:29:47.110 ,3,1,576.,4.8,0.,4.8,0.,4.8,1.,4.8
1979-03-06 15:29:51.910 ,3,1,496.,4.8,0.,4.8,0.,4.8,2.,4.8
1979-03-06 15:29:56.710 ,7,1,528.,4.8,0.,4.8,0.,4.8,3.,4.8
1979-03-06 15:30:01.510 ,7,1,592.,4.8,0.,4.8,0.,4.8,8.,4.8
1979-03-06 15:30:06.310 ,7,1,656.,4.8,0.,4.8,0.,4.8,1.,4.8
1979-03-06 15:30:11.110 ,7,1,576.,4.8,0.,4.8,0.,4.8,2.,4.8
1979-03-06 15:30:15.910 ,7,1,320.,4.8,0.,4.8,0.,4.8,1.,4.8
1979-03-06 15:30:20.710 ,4,1,192.,4.8,0.,4.8,0.,4.8,0.,4.8
1979-03-06 15:30:25.510 ,4,1,296.,4.8,0.,4.8,0.,4.8,0.,4.8
1979-03-06 15:30:30.310 ,4,1,560.,4.8,0.,4.8,0.,4.8,2.,4.8
1979-03-06 15:30:35.110 ,4,1,624.,4.8,0.,4.8,0.,4.8,3.,4.8
1979-03-06 15:30:39.910 ,4,1,576.,4.8,0.,4.8,0.,4.8,0.,4.8
1979-03-06 15:30:44.710 ,0,1,464.,4.8,0.,4.8,0.,4.8,0.,4.8
1979-03-06 15:30:49.510 ,0,1,456.,4.8,0.,4.8,0.,4.8,3.,4.8
1979-03-06 15:30:54.310 ,0,1,544.,4.8,0.,4.8,0.,4.8,0.,4.8
1979-03-06 15:30:59.110 ,0,1,512.,4.8,0.,4.8,0.,4.8,0.,4.8
1979-03-06 15:31:03.910 ,0,1,472.,4.8,0.,4.8,0.,4.8,0.,4.8
1979-03-06 15:31:08.710 ,3,1,504.,4.8,0.,4.8,0.,4.8,0.,4.8
1979-03-06 15:31:13.510 ,3,1,512.,4.8,0.,4.8,0.,4.8,4.,4.8
1979-03-06 15:31:18.310 ,3,1,544.,4.8,0.,4.8,0.,4.8,0.,4.8
1979-03-06 15:31:23.110 ,3,1,480.,4.8,0.,4.8,0.,4.8,0.,4.8
1979-03-06 15:31:27.910 ,3,1,456.,4.8,0.,4.8,0.,4.8,1.,4.8
1979-03-06 15:31:32.710 ,7,1,400.,4.8,0.,4.8,0.,4.8,1.,4.8
1979-03-06 15:31:37.510 ,7,1,504.,4.8,0.,4.8,0.,4.8,3.,4.8
1979-03-06 15:31:42.310 ,7,1,512.,4.8,0.,4.8,0.,4.8,1.,4.8
1979-03-06 15:31:47.110 ,7,1,448.,4.8,0.,4.8,0.,4.8,1.,4.8
1979-03-06 15:31:51.910 ,7,1,264.,4.8,0.,4.8,0.,4.8,0.,4.8
1979-03-06 15:31:56.710 ,4,1,176.,4.8,0.,4.8,0.,4.8,0.,4.8
1979-03-06 15:32:01.510 ,4,1,264.,4.8,0.,4.8,0.,4.8,0.,4.8
1979-03-06 15:32:06.310 ,4,1,472.,4.8,0.,4.8,0.,4.8,1.,4.8
1979-03-06 15:32:11.110 ,4,1,448.,4.8,0.,4.8,0.,4.8,1.,4.8